Le nostre stazioni meteo in Italia

Pubblicità
Il mio iltempo24.it
Dunstaffnage, Gran Bretagna (99006): Temperatura & dewpoint: 22.03.2017 11:00:00 - 28.03.2017 11:00:00 (BST)Dunstaffnage, Gran Bretagna (99006): Temperatura -20cm: 22.03.2017 11:00:00 - 28.03.2017 11:00:00 (BST)Dunstaffnage, Gran Bretagna (99006): velocità del vento & gusts: 22.03.2017 11:00:00 - 28.03.2017 11:00:00 (BST)Dunstaffnage, Gran Bretagna (99006): direzione del vento: 22.03.2017 11:00:00 - 28.03.2017 11:00:00 (BST)Dunstaffnage, Gran Bretagna (99006): precipitazioni: 22.03.2017 11:00:00 - 28.03.2017 11:00:00 (BST)
Data & Tempo tt [°C] td [°C] tt -20cm [°C] ff [km/h] ff [kn] fx [km/h] fx [kn] dd rr [mm]
28.03.2017 11:00:00 - - - - - - - - -
28.03.2017 10:00:00 8,3 4,1 6,7 18 10 - - E 0,0
28.03.2017 09:00:00 6,9 3,5 - 18 10 - - E 0,0
28.03.2017 08:00:00 6,0 3,2 - 16 9 - - E 0,0
28.03.2017 07:00:00 6,0 3,2 - 13 7 - - E 0,0
28.03.2017 06:00:00 6,4 3,1 - 16 9 - - E 0,0
28.03.2017 05:00:00 6,5 2,9 - 18 10 - - ESE 0,0
28.03.2017 04:00:00 6,9 2,5 - 24 13 - - ESE 0,0
28.03.2017 03:00:00 6,7 2,9 - 13 7 - - E 0,0
28.03.2017 02:00:00 6,2 4,7 - 8 4 - - E 0,0
28.03.2017 01:00:00 6,1 4,4 - 2 1 - - ENE 0,0
28.03.2017 00:00:00 6,2 4,0 - 4 2 - - O 0,0
27.03.2017 23:00:00 7,3 4,9 - 4 2 - - S 0,0
27.03.2017 22:00:00 9,0 5,3 - 4 2 - - S 0,0
27.03.2017 21:00:00 10,7 6,8 - 11 6 - - SSO 0,0
27.03.2017 20:00:00 11,6 6,3 - 8 4 - - SSO 0,0
27.03.2017 19:00:00 14,1 6,2 - 8 4 - - SO 0,0
27.03.2017 18:00:00 15,9 6,8 - 9 5 - - OSO 0,0
27.03.2017 17:00:00 16,1 6,6 - 11 6 - - OSO 0,0
27.03.2017 16:00:00 16,2 6,4 - 9 5 - - O 0,0
27.03.2017 15:00:00 15,7 6,8 - 13 7 - - SO 0,0
27.03.2017 14:00:00 15,2 6,3 - 9 5 - - O 0,0
27.03.2017 13:00:00 13,5 5,6 - 8 4 - - O 0,0
27.03.2017 12:00:00 11,6 5,5 - 5 3 - - ONO 0,0
27.03.2017 11:00:00 11,8 6,8 - 5 3 - - NO 0,0
27.03.2017 10:00:00 9,4 5,4 6,2 5 3 - - NE 0,0
27.03.2017 09:00:00 7,4 5,0 - 11 6 - - NE 0,0
27.03.2017 08:00:00 6,0 4,0 - 5 3 - - ENE 0,0
27.03.2017 07:00:00 6,1 4,0 - 8 4 - - NNE 0,0
27.03.2017 06:00:00 6,5 4,4 - 9 5 - - ENE 0,0
27.03.2017 05:00:00 5,3 3,3 - 5 3 - - N 0,0
27.03.2017 04:00:00 5,8 3,5 - 4 2 - - E 0,0
27.03.2017 03:00:00 7,8 4,3 - 5 3 - - E 0,0
27.03.2017 02:00:00 8,7 5,0 - 9 5 - - E 0,0
27.03.2017 01:00:00 10,7 5,6 - 15 8 - - ESE 0,0
27.03.2017 00:00:00 10,1 5,1 - 13 7 - - E 0,0
26.03.2017 23:00:00 11,0 6,6 - 9 5 - - E 0,0
26.03.2017 22:00:00 9,9 5,3 - 2 1 - - SE 0,0
26.03.2017 21:00:00 13,6 6,7 - 11 6 - - ESE 0,0
26.03.2017 20:00:00 11,8 6,3 - 2 1 - - SE 0,0
26.03.2017 19:00:00 15,7 5,4 - 2 1 - - S 0,0
26.03.2017 18:00:00 16,5 3,8 - 4 2 - - NE 0,0
26.03.2017 17:00:00 17,8 3,5 - 4 2 - - O 0,0
26.03.2017 16:00:00 17,8 3,7 - 4 2 - - ONO 0,0
26.03.2017 15:00:00 16,6 2,6 - 4 2 - - ENE 0,0
26.03.2017 14:00:00 16,1 3,3 - 5 3 - - NNE 0,0
26.03.2017 13:00:00 13,1 2,4 - 5 3 - - NO 0,0
26.03.2017 12:00:00 10,7 3,3 - 5 3 - - NNE 0,0
26.03.2017 11:00:00 9,0 3,3 - 11 6 - - ENE 0,0
26.03.2017 10:00:00 6,7 2,9 5,4 8 4 - - NE 0,0
26.03.2017 09:00:00 4,5 2,1 - 8 4 - - ENE 0,0
26.03.2017 08:00:00 3,5 1,7 - 9 5 - - NE 0,0
26.03.2017 07:00:00 2,5 1,6 - 9 5 - - ENE 0,0
26.03.2017 06:00:00 2,4 1,0 - 13 7 - - NE 0,0
26.03.2017 05:00:00 2,6 1,2 - 8 4 - - ENE 0,0
26.03.2017 04:00:00 2,8 1,9 - 9 5 - - ENE 0,0
26.03.2017 03:00:00 1,6 1,3 - 4 2 - - NE 0,0
26.03.2017 02:00:00 0,9 0,3 - 0 0 - - N 0,0
26.03.2017 01:00:00 1,7 1,1 - 4 2 - - SSO 0,0
26.03.2017 00:00:00 2,0 1,0 - 2 1 - - SE 0,0
25.03.2017 23:00:00 2,9 1,5 - 2 1 - - ESE 0,0
25.03.2017 22:00:00 4,1 1,3 - 4 2 - - SSO 0,0
25.03.2017 21:00:00 5,1 1,3 - 2 1 - - S 0,0
25.03.2017 20:00:00 8,7 1,6 - 4 2 - - E 0,0
25.03.2017 19:00:00 11,5 1,6 - 8 4 - - SSO 0,0
25.03.2017 18:00:00 13,5 1,2 - 9 5 - - SSO 0,0
25.03.2017 17:00:00 13,6 1,5 - 13 7 - - OSO 0,0
25.03.2017 16:00:00 12,9 2,5 - 9 5 - - O 0,0
25.03.2017 15:00:00 12,7 2,1 - 13 7 - - OSO 0,0
25.03.2017 14:00:00 12,3 3,2 - 15 8 - - OSO 0,0
25.03.2017 13:00:00 9,1 1,9 - 13 7 - - O 0,0
25.03.2017 12:00:00 9,6 2,1 - 4 2 - - N 0,0
25.03.2017 11:00:00 7,6 2,1 - 4 2 - - ENE 0,0
25.03.2017 10:00:00 5,4 1,9 5,4 8 4 - - NNE 0,0
25.03.2017 09:00:00 3,8 1,1 - 5 3 - - NE 0,0
25.03.2017 08:00:00 2,4 0,3 - 9 5 - - ENE 0,0
25.03.2017 07:00:00 -0,4 -1,3 - 2 1 - - SSE 0,0
25.03.2017 06:00:00 -0,1 -1,1 - 2 1 - - SSE 0,0
25.03.2017 05:00:00 -0,2 -0,9 - 2 1 - - ENE 0,0
25.03.2017 04:00:00 -0,1 -0,9 - 2 1 - - SSE 0,0
25.03.2017 03:00:00 0,1 -0,9 - 2 1 - - SSE 0,0
25.03.2017 02:00:00 1,0 -0,8 - 4 2 - - SSE 0,0
25.03.2017 01:00:00 1,7 0,6 - 2 1 - - S 0,0
25.03.2017 00:00:00 2,6 1,4 - 4 2 - - S 0,0
24.03.2017 23:00:00 3,4 1,9 - 2 1 - - NNE 0,0
24.03.2017 22:00:00 3,9 2,5 - 2 1 - - S 0,0
24.03.2017 21:00:00 6,2 3,5 - 2 1 - - SSE 0,0
24.03.2017 20:00:00 7,2 3,7 - 2 1 - - E 0,0
24.03.2017 19:00:00 8,2 3,8 - 8 4 - - SO 0,0
24.03.2017 18:00:00 9,7 3,4 - 15 8 - - OSO 0,0
24.03.2017 17:00:00 10,6 2,9 - 11 6 - - SSO 0,0
24.03.2017 16:00:00 10,1 2,4 - 11 6 - - SO 0,0
24.03.2017 15:00:00 10,4 1,4 - 11 6 - - SSO 0,0
24.03.2017 14:00:00 10,0 4,3 - 16 9 - - O 0,0
24.03.2017 13:00:00 7,8 2,9 - 13 7 - - O 0,0
24.03.2017 12:00:00 7,3 1,9 - 8 4 - - ONO 0,0
24.03.2017 11:00:00 6,4 1,7 - 5 3 - - NE 0,0
24.03.2017 10:00:00 4,9 1,9 5,2 9 5 - - ENE 0,0
24.03.2017 09:00:00 2,8 0,4 - 11 6 - - ENE 0,0
24.03.2017 08:00:00 1,2 -0,1 - 13 7 - - ENE 0,0
24.03.2017 07:00:00 -0,8 -1,8 - 4 2 - - ENE 0,0
24.03.2017 06:00:00 0,5 -0,7 - 4 2 - - E 0,0
24.03.2017 05:00:00 -0,5 -1,1 - 4 2 - - ENE 0,0
24.03.2017 04:00:00 -0,5 -1,2 - 2 1 - - SSE 0,0
24.03.2017 03:00:00 0,4 -0,5 - 2 1 - - SSE 0,0
24.03.2017 02:00:00 1,4 -0,3 - 2 1 - - SE 0,0
24.03.2017 01:00:00 1,4 -0,4 - 4 2 - - SSE 0,0
24.03.2017 00:00:00 3,1 0,2 - 2 1 - - ESE 0,0
23.03.2017 23:00:00 5,9 1,1 - 16 9 - - E 0,0
23.03.2017 22:00:00 6,8 1,3 - 13 7 - - E 0,0
23.03.2017 21:00:00 7,4 1,1 - 13 7 - - ESE 0,0
23.03.2017 20:00:00 7,2 2,4 - 4 2 - - SE 0,0
23.03.2017 19:00:00 8,0 2,1 - 9 5 - - E 0,0
23.03.2017 18:00:00 8,3 2,3 - 9 5 - - NE 0,0
23.03.2017 17:00:00 8,3 2,2 - 11 6 - - NE 0,0
23.03.2017 16:00:00 8,4 1,6 - 13 7 - - ENE 0,0
23.03.2017 15:00:00 8,6 1,2 - 18 10 - - ENE 0,0
23.03.2017 14:00:00 8,2 0,2 - 16 9 - - E 0,0
23.03.2017 13:00:00 8,1 1,4 - 13 7 - - ENE 0,0
23.03.2017 12:00:00 7,8 0,1 - 18 10 - - ENE 0,0
23.03.2017 11:00:00 7,1 -0,1 - 13 7 - - NE 0,0
23.03.2017 10:00:00 5,4 -1,2 5,0 16 9 - - NNE 0,0
23.03.2017 09:00:00 3,7 -2,4 - 13 7 - - NNE 0,0
23.03.2017 08:00:00 3,3 -3,0 - 13 7 - - N 0,0
23.03.2017 07:00:00 3,6 -2,4 - 15 8 - - N 0,0
23.03.2017 06:00:00 4,2 -2,1 - 18 10 - - NE 0,0
23.03.2017 05:00:00 3,9 -1,7 - 18 10 - - NE 0,0
23.03.2017 04:00:00 4,1 -1,4 - 21 11 - - NNE 0,0
23.03.2017 03:00:00 4,5 -1,7 - 28 15 - - NNE 0,0
23.03.2017 02:00:00 4,6 -1,0 - 26 14 - - NNE 0,0
23.03.2017 01:00:00 5,0 -0,2 - 26 14 - - NE 0,0
23.03.2017 00:00:00 4,3 -1,0 - 21 11 - - NNE 0,0
22.03.2017 23:00:00 4,6 -1,4 - 18 10 - - NNE 0,0
22.03.2017 22:00:00 5,4 -0,6 - 28 15 - - NNE 0,0
22.03.2017 21:00:00 5,2 -0,7 - 24 13 - - NNE 0,0
22.03.2017 20:00:00 5,4 -0,1 - 21 11 - - NNE 0,0
22.03.2017 19:00:00 6,8 0,6 - 29 16 - - NE 0,0
22.03.2017 18:00:00 7,3 1,4 - 35 19 48 26 NE 0,0
22.03.2017 17:00:00 7,7 1,0 - 31 17 48 26 NE 0,0
22.03.2017 16:00:00 7,5 1,4 - 34 18 46 25 NE 0,0
22.03.2017 15:00:00 7,1 0,1 - 29 16 - - NNE 0,0
22.03.2017 14:00:00 7,7 1,5 - 26 14 - - NE 0,0
22.03.2017 13:00:00 7,1 0,3 - 16 9 - - ENE 0,0
22.03.2017 12:00:00 5,7 0,1 - 11 6 - - N 0,2
22.03.2017 11:00:00 - - - - - - - - -

tt = Temperatura
td = dewpoint
tt -20cm = Temperatura -20cm
ff = velocità del vento
fx = gusts
dd = direzione del vento
rr = precipitazioni

Stazioni seguenti

WeatherPro
AMSI
MeteoEarth